Location: Alsip
(41.6689°N, 87.7387°W)
Time: 14:24:22
(UTC+00:00)

Meteor 1-13 Rocket - Pass Details

Date: 14 July 2020
Orbit: 830 x 913 km, 81.3° (Epoch: 04 August)

Event Time Altitude Azimuth Distance (km) Brightness Sun altitude
Rises 07:56:51 0° 350° (N) 3,485 8.2 -20.9°
Reaches altitude 10° 07:59:19 10° 351° (N) 2,530 7.4 -20.7°
Maximum altitude 08:05:04 88° 78° (ENE) 864 4.2 -20.1°
Enters shadow 08:08:16 27° 170° (S) 1,572 5.2 -19.8°
